FW2966 Weather Reports


time (UTC)temp
C
wind
direction
speed
KPH
gust
KPH
rain 1hr
cm
rain 24hr
cm
rain mn
cm
humidity
%
barometer
mb
20260504173101 21 334 11.3 27.4 0.00 0.00 0.00 37 1010.3
20260504171550 20 271 8.0 30.6 0.00 0.00 0.00 36 1010.6
20260504081544 11 321 8.0 19.3 0.00 0.00 0.00 48 1012.5
20260504044545 10 318 3.2 19.3 0.00 0.00 0.00 54 1012.0
20260504043053 9 284 1.6 4.8 0.00 0.00 0.00 59 1011.8
20260504041546 8 0 0.0 0.0 0.00 0.00 0.00 63 1011.6
20260504040105 8 0 0.0 0.0 0.00 0.00 0.00 59 1011.5
20260504034609 8 0 0.0 0.0 0.00 0.00 0.00 60 1011.5
20260504033043 8 0 0.0 3.2 0.00 0.00 0.00 59 1011.6
20260504031541 9 0 0.0 0.0 0.00 0.00 0.00 57 1011.5
20260504030104 10 0 0.0 0.0 0.00 0.00 0.00 53 1011.6
20260504024558 10 0 0.0 0.0 0.00 0.00 0.00 50 1011.5
20260504023043 11 0 0.0 0.0 0.00 0.00 0.00 48 1011.6
20260504021553 11 0 0.0 0.0 0.00 0.00 0.00 47 1011.8
20260504020107 11 0 0.0 0.0 0.00 0.00 0.00 44 1011.8
20260504014555 11 0 0.0 3.2 0.00 0.00 0.00 43 1011.5
20260504013051 12 352 1.6 3.2 0.00 0.00 0.00 42 1011.5
20260504011550 12 352 1.6 4.8 0.00 0.00 0.00 40 1011.4
20260504010049 12 341 1.6 6.4 0.00 0.00 0.00 39 1011.1
20260504004556 13 302 0.0 3.2 0.00 0.00 0.00 37 1011.0
20260504003042 13 329 1.6 6.4 0.00 0.00 0.00 36 1011.0
20260504001600 13 317 1.6 8.0 0.00 0.00 0.00 35 1010.6
20260504000055 13 326 3.2 9.7 0.00 0.00 0.00 34 1010.5
20260503234548 14 319 3.2 14.5 0.00 0.00 0.00 33 1010.2
20260503233043 14 335 4.8 19.3 0.00 0.00 0.00 32 1009.9
20260503231553 15 314 4.8 16.1 0.00 0.00 0.00 31 1009.9
20260503230051 15 18 8.0 20.9 0.00 0.00 0.00 30 1009.7
20260503224548 16 338 6.4 20.9 0.00 0.00 0.00 29 1009.4
20260503223048 16 309 11.3 27.4 0.00 0.00 0.00 28 1009.5
20260503221547 16 303 6.4 22.5 0.00 0.00 0.00 29 1009.5
20260503220044 16 352 11.3 32.2 0.00 0.00 0.00 28 1009.6
20260503214540 16 42 11.3 30.6 0.00 0.00 0.00 28 1009.6
20260503213048 15 296 14.5 35.4 0.00 0.00 0.00 29 1009.5
20260503211549 16 27 9.7 30.6 0.00 0.00 0.00 29 1009.4
20260503210044 15 29 12.9 37.0 0.00 0.00 0.00 30 1009.4
20260503204557 15 11 14.5 32.2 0.00 0.00 0.00 30 1009.4
20260503203050 15 340 14.5 38.6 0.00 0.00 0.00 31 1009.5
20260503201545 15 281 14.5 33.8 0.00 0.00 0.00 31 1009.5
20260503200045 15 5 9.7 30.6 0.00 0.00 0.00 32 1009.6
20260503194550 15 288 14.5 37.0 0.00 0.00 0.00 33 1009.7
20260503193108 14 352 9.7 30.6 0.00 0.00 0.00 34 1009.9
20260503191551 14 360 11.3 32.2 0.00 0.00 0.00 36 1010.0
20260503190059 14 51 9.7 32.2 0.00 0.00 0.00 38 1010.1
20260503184547 13 351 8.0 32.2 0.00 0.00 0.00 36 1010.2
20260503183045 13 330 12.9 32.2 0.00 0.00 0.00 37 1010.3
20260503181548 13 18 14.5 38.6 0.00 0.00 0.00 39 1010.2
20260503180055 13 352 11.3 32.2 0.00 0.00 0.00 40 1010.4
20260503174548 13 292 14.5 32.2 0.00 0.00 0.00 38 1010.4